Regional Weather Roundup
Issued by NWS

Home | Current Version | Previous Version | Graphics & Text | Print | Product List | Glossary On
Versions: 1 2 3 4 5 6 7 8 9 10 11 12 13 14 15 16 17 18 19 20 21 22 23 24 25 26 27 28 29 30 31 32 33 34 35 36 37 38 39 40 41 42 43 44 45 46 47 48 49 50
423
ASUS43 KFSD 250302
RWRSD

WEATHER ROUNDUP FOR SOUTH DAKOTA
NATIONAL WEATHER SERVICE SIOUX FALLS SD
1000 PM CDT MON APR 24 2017

NOTE: "FAIR" INDICATES FEW OR NO CLOUDS BELOW 12,000 FEET WITH NO
SIGNIFICANT WEATHER AND/OR OBSTRUCTIONS TO VISIBILITY.


SDZ001>005-009-010-012>017-250400-
NORTHWEST AND NORTH CENTRAL SOUTH DAKOTA

CITY           SKY/WX    TMP DP  RH WIND       PRES   REMARKS
BUFFALO          N/A     42  36  79 E18       29.59R
FAITH            N/A     36  35  96 NE9       29.66R
MOBRIDGE       CLOUDY    39  31  72 N13       29.66R
$$

SDZ012>016-024>037-041>051-057-063-072>074-250400-
SOUTHWEST AND SOUTH CENTRAL SOUTH DAKOTA

CITY           SKY/WX    TMP DP  RH WIND       PRES   REMARKS
RAPID CTY ARPT MOCLDY    49  39  68 E14       29.61R
PIERRE         CLOUDY    39  34  82 N16       29.64R
CUSTER         LGT RAIN  40  37  89 NE10      29.62S
ELLSWORTH AFB  CLOUDY    48  41  76 E14       29.61R
PHILIP         CLOUDY    45  38  76 NE16      29.64R
PINE RIDGE     CLOUDY    52  43  71 NE9       29.59S
SPEARFISH      CLOUDY    45  41  87 E14G23    29.63R
WINNER         FAIR      44  38  79 N6        29.63R
$$

SDZ004>011-016>023-039-040-250400-
NORTHEAST SOUTH DAKOTA

CITY           SKY/WX    TMP DP  RH WIND       PRES   REMARKS
ABERDEEN       CLOUDY    37  32  82 N15       29.66R
WATERTOWN      CLOUDY    41  37  86 NW18      29.58R
BROOKINGS      PTCLDY    49  41  74 NW17      29.56R
SISSETON         N/A     39  37  92 N16       29.59R
$$

SDZ017-020-022-023-036>040-048>070-250400-
SOUTHEAST SOUTH DAKOTA

CITY           SKY/WX    TMP DP  RH WIND       PRES   REMARKS
SIOUX FALLS    PTCLDY    52  44  74 NW10      29.55R
HURON          CLOUDY    44  36  73 N16       29.62R
CHAMBERLAIN    PTCLDY    47  40  76 NW13      29.63R
MITCHELL       CLOUDY    47  39  74 N16       29.61R
YANKTON        PTCLDY    50  39  66 W9        29.56S
$$

ABBREVIATIONS USED IN REMARKS
   TC - TEMPERATURE IN CELSIUS
  WCI - WIND CHILL INDEX
   HX - HEAT INDEX
  VSB - VISIBILITY





USA.gov is the U.S. government's official web portal to all federal, state and local government web resources and services.